Погода Белый

Погода Белый : погода сейчас, прогноз погоды и архив. Всё, что Вы хотите узнать о погоде Белый!

Поиск расширенной информации на нашем сайте:

Другие новости

Новости СМИ2

Главная страница сайта

Новости сайта

02.10.2013

Напоминаем, что на нашем новом сайте вы можете получить высокодетализированные прогнозы погоды по пунктам России, СНГ и мира (включающие важные для авиации метеовеличины, такие как направление и скорость ветра, видимость, явления погоды, количество и форма облачности, нижняя и верхняя граница облачности), а также ознакомиться с разнообразными материалами по авиационной метеорологии и подборкой полезных ссылок на эту тему.

Сайт Метеоцентр.Азия посвящён разработке технологий оптимизации авиаметеорологического обслуживания, включая проектирование и перспективное создание нескольких автоматизированных авиаметеорологических систем:
- система выпуска высокодетальных прогностических карт явлений погоды для нижнего воздушного пространства по России и ближнему зарубежью;
- система верификации прогнозов TAF (выпускаемых синоптиками официальных АМСГ РФ и ближнего зарубежья) и AUTOTAF (выпускаемых сайтом Метеоцентр.Азия) - выявление ошибок, онлайн-сопоставление с фактической погодой METAR, автоматическое внесение коррективов в прогнозы при резком отклонении фактической погоды от прогноза, подсчёт оправдываемости прогнозов по элементам и в целом;
- система обработки, анализа и отображения авиаметеорологической информации для применения провайдерами метеорологической информации.


Погода Белый - сегодня

Время (UTC), дата Ветер
(°,м/с) 
Видим.   Явления Облачность Т
(°С)
Тd
(°С)
f(%) Тe
(°С)
Pmin
(гПа)
dP
(гПа)
Po
(мм)
O2
(г/м3)
Тmin Tmax R s Состояние
почвы
00 24.03.17 230 (ЮЗ) 10 км    6/0 верхняя 
[Ci sp]
+1.4 -4.3 66 +1  1023.7  -0.5  747  300           
03 24.03.17 220 (ЮЗ) 10 км    9/9 600 м 
[Sc]
+1.1 -3.6 71 1021.8  -1.9  745  300  -0.4         
06 24.03.17 270 (З) 20000 м    9/9 600 м 
[Sc]
+2.9 -3 65 +2  1020.6  -1  745  297  -0.4         
09 24.03.17 310 (СЗ) 4000 м  слаб. морось  10/10 300 м 
[St]
+2.5 +0.5 87 +2  1019.4  -1.1  744  297           
12 24.03.17 290 (З) 20000 м  {ливн. осадки, морось}  9/9 300 м 
[Sc]
+3.4 +1.4 87 +2  1017.7  -1.5  743  295           
15 24.03.17 320 (СЗ) 20000 м    8/8 600 м 
[Sc]
+4.7 -7.8 40 +4  1016.5  -1.1  742  295         
18 24.03.17 340 (С) 5-11{11}  10 км    8/8 600 м 
[Sc]
+1.8 -6.2 55 -1  1018.6  1.8  743  298    +5.4     
21 24.03.17 320 (СЗ) 2{11}  10 км    ясно 
-1.4 -8.9 57 -2  1019.9  0.9  744  302           
00 25.03.17 300 (СЗ) 10 км    ясно 
-3.2 -9.5 62 -4  1020.6  0.5  744  304           
03 25.03.17 300 (СЗ) 10 км    ясно 
-4.5 -9.5 68 -6  1020.5  -0.2  744  306  -4.5         
06 25.03.17 300 (СЗ) 20000 м    ясно 
-1.6 -7.3 65 -4  1019.8  -0.4  744  302  -4.7         
09 25.03.17 300 (СЗ) 20000 м    4/0 средняя 
[Ac trans]
+2.5 -7.7 47 1018.2  -1.1  743  297           
12 25.03.17 300 (СЗ) 20000 м    6/6 600 м 
[Sc]
+3.8 -9.3 38 +3  1015.9  -2.1  741  296           
15 25.03.17 330 (СЗ) 20000 м    8/8 600 м 
[Sc]
+2.7 -10.3 38 +2  1014.8  -1.2  740  296           
18 25.03.17 300 (СЗ) 10 км    9/9 600 м 
[Sc]
-1.5 -9.7 54 -1  1015.5  0.3  741  301    +4.3       
21 25.03.17 290 (З) 10 км    8/8 600 м 
[Sc]
-1.9 -7.4 66 -1  1016.4  0.8  741  302           
00 26.03.17 280 (З) 10 км    9/9 600 м 
[Sc]
-1.6 -6.7 68 -3  1017.3  0.9  742  301           
03 26.03.17 310 (СЗ) 10 км    9/9 600 м 
[Sc]
-2.1 -6.1 74 -2  1018  0.6  742  302  -2.1         
06 26.03.17 310 (СЗ) 20000 м    8/8 600 м 
[Sc]
-0.5 -5.3 70 1019  1.2  743  301  -2.2         
09 26.03.17 310 (СЗ) 20000 м    9/9 600 м 
[Sc]
+2.9 -6.7 49 +1  1018.7  743  297           
12 26.03.17 270 (З) 20000 м    9/6 600 м средняя 
[Sc|Ac trans]
+3.5 -4.2 57 +2  1016.8  -1.8  742  296           
15 26.03.17 270 (З) 20000 м    9/6 600 м средняя 
[Sc|Ac trans]
+2.8 -3.9 61 +1  1013.4  -3.3  740  295           
18 26.03.17 260 (З) 6-13{13}  10 км    9/9 600 м 
[Sc]
+1.9 -2.2 74 -1  1008.4  -5  736  295    +3.9       
21 26.03.17 260 (З) 7-13{13}  10 км    9/9 600 м 
[Sc]
+0.1 -0.4 96 -4  1002.7  -5.7  731  295           
00 27.03.17 300 (СЗ) 5-10{13}  4000 м  слаб. ливневой дождь  10/10 300 м кучево-дожд. 
[Cb calv]
+1.1 +0.6 96 -2  999.6  -3  729  292           
Время (UTC), дата Ветер
(°,м/с) 
Видим.   Явления Облачность Т
(°С)
Тd
(°С)
f(%) Тe
(°С)
Pmin
(гПа)
dP
(гПа)
Po
(мм)
O2
(г/м3)
Тmin Tmax R s Состояние
почвы

Для получения пояснительной информации подведите курсор к названию столбца.

ПОГОДА Белый - архив

Всё, что Вы хотите узнать о погоде Белый - удобно и подробно!

Выберите нужную дату (начиная с 1 января 2015* года) и нажмите кнопку "Найти".
Будут отображены архивные сводки погоды по пункту Белый, начиная с указанной даты.


Отображать данные в формате CSV (для использования в таблицах Excel)


Внимание! Наш архив погоды предназначен исключительно для личного некоммерческого использования в познавательных целях. Если Вам необходимы официальные справки о состоянии погоды (для производственных, юридических, коммерческих и т.п. целей), обращайтесь в органы Росгидромета.

*Примечание: данная дата относится к архиву по метеостанциям СССР (Россия, СНГ, Балтия).
Архив по метеостанциям Зарубежной Европы и Азии (кроме Китая) хранится 10 дней, по другим регионам земного шара (Китай, Африка, Америка, Австралия, Океания) - 1 день.

Белый - район местоположения метеостанции


Название, широта, долгота, высота метеостанции:
Белый 55.9°ш. 32.9°д. 222 м над ур. моря [Российская Федерация]

Дополнительная информация

В oтличие oт бoльшинства пoгoдных сайтoв мы публикуем пoдрoбную метеoинфoрмацию в детальнoм прoфессиoнальнoм фoрмате.

Характеристики температуры и влажнoсти вoздуха измеряются на высoте 2 м в тени вдали oт зданий и деревьев.
Скoрoсть ветра измеряется на высoте 10 м (на урoвне рoста челoвека скoрoсть ветра ниже в 1.5-2 раза). Если метеoстанция нахoдится в гoрoде или в лесу, тo скoрoсть ветра занижена на 2-4 м/с пo сравнению с oткрытым местoм. Скoрoсть ветра над акватoриями крупных рек и oзёр, а также на вершинах хoлмoв на 2-5 м/с выше, чем в oбычных услoвиях.
Атмoсфернoе давление в разных тoчках местнoсти мoжет значительнo oтличаться oт давления на метеoстанции, в зависимoсти oт услoвий рельефа (при пoдъёме на 10 м давление пoнижается примернo на 1 мм рт.ст.).